Weather in Cuilapa

Guatemala     14°16′22″N   90°17′51″W
temp.,
°C
wind,
m/s
gust,
m/s
humid.,
%
clouds,
%
prec.,
mm/h
press.,
hPa
HPBL,
m
9 march, tue
tue900:00+17n357436 0.0 1019161
03:00+17n34760 0.0 1017138
06:00+16nne337818 0.0 1018111
09:00+24nne244899 0.0 1020961
12:00+30n233099 0.0 10161741
15:00+30ne2228100 0.0 10132528
18:00+23nne1247100 0.0 101597
21:00+19n336170 0.0 101896
10 march, wed
wed1000:00+18n357085 0.0 1017207
03:00+17n347431 0.0 1016127
06:00+16n347516 0.0 1016130
09:00+27nnw134365 0.0 1018870
12:00+34e122875 0.0 10162168
15:00+27sw0242100 0.0 10121341
18:00+24ese225072 0.0 101470
21:00+19nne336727 0.0 101791
11 march, thu
thu1100:00+18n337317 0.0 101689
03:00+17n237730 0.0 101583
06:00+16n237925 0.0 101678
09:00+28nne133912 0.0 1017840
12:00+31ese332921 0.0 10142467
15:00+25sw334999 0.0 1011713
18:00+22ssw226774 0.0 101279
21:00+19nne22740 0.0 101538
12 march, fri
fri1200:00+18n23770 0.0 101658
03:00+17n23834 0.0 101563
06:00+16n238314 0.0 101661
09:00+28nne134041 0.0 10171004
12:00+33ese342432 0.0 10152832
15:00+32sse353082 0.0 10112212
18:00+22sw236862 0.0 1013192
21:00+19nne22760 0.0 101534
13 march, sat
sat1300:00+18n33801 0.0 101589
03:00+17n238327 0.0 101462
06:00+16n228426 0.0 101548
09:00+28sse113810 0.0 1016879
12:00+31s44266 0.0 10142284
15:00+28ssw43403 0.0 10111274
18:00+22s12704 0.1 101258
21:00+18n12873 0.0 101525